Weather History for KARB - September, 2011

Change the Weather History Date:

Sunday, September 4, 2011

  Actual Average Record
Temperature  
Mean Temperature 70 °F -  
Max Temperature 75 °F 77 °F 89 °F (1999)
Min Temperature 62 °F 52 °F 44 °F (2013)
Cooling Degree Days 4    
Growing Degree Days 20 (Base 50)    
Moisture  
Dew Point 64 °F    
Average Humidity 80    
Maximum Humidity 97    
Minimum Humidity 59    
Precipitation  
Precipitation 0.00 in - - ()
Sea Level Pressure  
Sea Level Pressure 29.83 in    
Wind  
Wind Speed 7 mph (West)    
Max Wind Speed 25 mph    
Max Gust Speed 88 mph    
Visibility 9 miles    
Events Rain    
Averages and records for this station are not official NWS values.
T = Trace of Precipitation, MM = Missing Value Source: NWS Daily Summary

Daily Weather History Graph

Daily Weather History Graph

Search for Another Location

Airport or City:

Trip Planner

Search our weather history database for the weather conditions in past years. The results will help you decide how hot, cold, wet, or windy it might be!

Date:

Astronomy

Sep. 04, 2011 Rise Set
Actual Time 7:03 AM EDT 8:04 PM EDT
Civil Twilight 6:34 AM EDT 8:32 PM EDT
Nautical Twilight 6:00 AM EDT 9:06 PM EDT
Astronomical Twilight 5:24 AM EDT 9:42 PM EDT
Moon 2:56 PM EDT (9/4) No Moon Set
Length of Visible Light 13h 58m
Length of Day
13h 01m
Waxing Crescent, 49% of the Moon is Illuminated
Sep 4
Waxing Crescent
Sep 4
First Quarter
Sep 12
Full
Sep 20
Last Quarter
Sep 27
New

Hourly Weather History & Observations

Time (EDT) Temp. Dew Point Humidity Pressure Visibility Wind Dir Wind Speed Gust Speed Precip Events Conditions
12:53 AM 69.1 °F 66.0 °F 90% 29.80 in 10.0 mi Calm Calm - N/A   Partly Cloudy
1:53 AM 66.9 °F 66.0 °F 97% 29.81 in 9.0 mi Calm Calm - N/A   Partly Cloudy
2:53 AM 69.1 °F 66.0 °F 90% 29.82 in 10.0 mi SSW 8.1 mph - N/A   Scattered Clouds
4:53 AM 66.9 °F 64.9 °F 93% 29.79 in 10.0 mi South 3.5 mph - N/A   Clear
5:53 AM 66.9 °F 64.9 °F 93% 29.80 in 7.0 mi WSW 5.8 mph - N/A   Partly Cloudy
6:53 AM 66.9 °F 64.9 °F 93% 29.83 in 6.0 mi SW 6.9 mph - N/A   Clear
7:53 AM 68.0 °F 66.0 °F 93% 29.84 in 5.0 mi ESE 25.3 mph 87.5 mph N/A   Squalls
8:07 AM 68.0 °F 66.2 °F 94% 29.85 in 6.0 mi West 6.9 mph - N/A   Partly Cloudy
8:53 AM 69.1 °F 66.9 °F 93% 29.83 in 6.0 mi West 6.9 mph - N/A   Overcast
9:53 AM 71.1 °F 68.0 °F 90% 29.82 in 10.0 mi West 9.2 mph - N/A   Mostly Cloudy
10:53 AM 73.0 °F 66.9 °F 81% 29.82 in 10.0 mi WNW 11.5 mph - N/A   Scattered Clouds
11:53 AM 75.0 °F 66.9 °F 76% 29.82 in 10.0 mi WNW 9.2 mph - N/A   Scattered Clouds
12:06 PM 73.4 °F 66.2 °F 78% 29.84 in 10.0 mi West 9.2 mph - N/A   Mostly Cloudy
12:13 PM 73.4 °F 66.2 °F 78% 29.83 in 10.0 mi West 9.2 mph - N/A   Scattered Clouds
12:53 PM 73.9 °F 66.9 °F 79% 29.82 in 10.0 mi West 9.2 mph - N/A   Mostly Cloudy
1:00 PM 75.2 °F 68.0 °F 78% 29.83 in 10.0 mi WSW 9.2 mph - N/A   Scattered Clouds
1:53 PM 75.0 °F 66.0 °F 73% 29.81 in 10.0 mi West 12.7 mph - N/A   Mostly Cloudy
2:53 PM 73.9 °F 66.0 °F 76% 29.81 in 10.0 mi West 8.1 mph - N/A   Mostly Cloudy
3:53 PM 73.9 °F 64.9 °F 73% 29.81 in 10.0 mi West 6.9 mph - N/A Rain Light Rain
4:53 PM 73.0 °F 63.0 °F 71% 29.81 in 10.0 mi NW 12.7 mph - N/A   Mostly Cloudy
5:53 PM 72.0 °F 60.1 °F 66% 29.81 in 10.0 mi WNW 9.2 mph 18.4 mph N/A   Clear
6:53 PM 72.0 °F 57.0 °F 59% 29.82 in 10.0 mi NNW 13.8 mph 19.6 mph N/A   Clear
7:53 PM 68.0 °F 55.0 °F 63% 29.83 in 10.0 mi NW 8.1 mph - N/A   Clear
8:53 PM 66.0 °F 55.0 °F 68% 29.86 in 10.0 mi WNW 6.9 mph - N/A   Clear
9:53 PM 64.0 °F 54.0 °F 70% 29.88 in 10.0 mi NW 5.8 mph - N/A   Clear
10:53 PM 62.1 °F 54.0 °F 75% 29.88 in 10.0 mi WNW 8.1 mph - N/A   Clear